STARLINK-36911, 68008

Orbit data source: Space-Track

STARLINK-36911, 68008 is a payload satellite owned by SpaceX/Seattle (US) in LEO that was launched on Fri, 27 Feb 2026 UTC via an FALCON 9 launch vehicle from the Air Force Eastern Test Range (AFETR). Payload-class satellites include a variety of spacecraft equipped with specific instruments for various scientific and technological missions. These include communications satellites like Starlink; space stations such as the ISS; scientific satellites like the Hubble; Earth observation satellites from companies like Planet Labs, Umbra, and HawkEye 360; GPS; miniature CubeSats for education and research; and military/defense satellites.

Loading next visibility...
Identifier
68008, 2026-039Y
Orbit
LEO
Country
Flag of USUS
Related business
Manufacturer
SpaceX/Seattle
Mission
Operational Commercial Communications
Bus & Motor
STARLINK V2MO, Unknown motor
Mass
575 kg wet, ~530 kg dry
Launch date (UTC)
2026-02-27 (2 months ago)
Launch vehicle
FALCON 9
Launch site
Air Force Eastern Test Range (AFETR)
Object type
Payload
Rocket body
Debris
Shape & HBR
Box + 2 Pan, 17.7 m
Radar Cross Section
36.964 m²

Expand to show TLE details & history
Last TLE update: 2 days ago

TLE from 2 days ago
0 STARLINK-36911
1 68008U 26039Y   26110.47390324  .00010782  00000-0  40078-3 0  9994
2 68008  43.0023 172.9531 0002413 282.0422  78.0159 15.27579429  8092
Epoch: 2026-04-20T11:22Z
TLE epoch observation values (Epoch: 2026-04-20T11:22:25.239Z)
Latitude
-0.00005°
Longitude
153.78436°
Altitude
482.483 km
Speed
7.626 km/s
True Right ascension
11h 31m 48s
True Declination
0° 00' 00"
Sunlit
Object was in full shadow at epoch
Visualization orbit readout
Latitude
Unknown
Longitude
Unknown
Altitude
Unknown
Speed
Unknown
Apparent Right ascension
Unknown
Apparent Declination
Unknown
Sunlit
N/A
Visualization observer readout
Local Sidereal Time
18:00:01
Azimuth
Unknown
Elevation
Unknown
Doppler factor
Unknown
Orbital elements
Apogee altitude
486.652 km
Perigee altitude
483.34 km
Semi-major axis
6,863.133 km
Eccentricity
0.00024
Inclination
43.0023°
RAAN
172.9531°
Arg. of periapsis
282.0422°
True anomaly
78.04295°
Mean anomaly
78.0159°
Eccentric anomaly
78.02942°
Mean motion
3.81733 °/min
Orbital period
94.31 mins
BSTAR
0.00040078
Loading maneuver chart data...
Computing Atmospheric mass density...
Loading historical data...
Loading historical data...
Loading historical data...
Loading historical data...
Loading historical data...
Loading historical data...
Loading historical data...

Documentation

Showing up to 5 results
|